Miscellaneous Local Product
Issued by NWS North Platte, NE

Home | Current Version | Previous Version | Text Only | Print | Product List | Glossary On
Versions: 1 2 3 4 5 6 7 8 9 10 11 12 13 14 15 16 17 18 19 20 21 22 23 24 25 26 27 28 29 30 31 32 33 34 35 36 37 38 39 40 41 42 43 44 45 46 47 48 49 50
000
AXUS43 KLBF 041910
MISLBF


WESTERN AND NORTH CENTRAL NEBRASKA HOURLY WEATHER ROUNDUP
NATIONAL WEATHER SERVICE NORTH PLATTE NE
100 PM CST WED MAR 04 2015

***STATIONS NOT REPORTING VARIABLES SUCH AS SKY/WEATHER OR
PRESSURE ARE PROVIDED BY THE NEBRASKA DEPARTMENT OF
ROADS...RAWS...AND APRS NETWORKS...AND ARE NOT UNDER
NATIONAL WEATHER SERVICE QUALITY CONTROL***

...OBSERVATIONS IN AND NEAR THE EASTERN PANHANDLE OF NEBRASKA...

CITY           SKY/WX    TMP DP  RH WIND       PRES   REMARKS
WHITECLAY        N/A     15   1  54 W7          N/A  WCI   5
CRESCENT LAKE    N/A     22   2  42 NW16        N/A  WCI   8
LISCO            N/A     28  -6  23 W16         N/A  WCI  15
BIG SPRINGS      N/A     25   8  47 NW6         N/A  WCI  18
LEWELLEN         N/A     20  -7  29 W15         N/A  WCI   7
$$

...OBSERVATIONS IN NORTH CENTRAL NEBRASKA...

CITY           SKY/WX    TMP DP  RH WIND       PRES   REMARKS
THEDFORD       PTSUNNY   24   2  38 NW14G22   30.24S WCI  12
AINSWORTH      MOSUNNY   19  -1  41 NW23      30.26R WCI   2
O`NEILL        MOSUNNY   22  -2  34 NW25G32   30.28F WCI   6
BROWNLEE         N/A     18  -4  37 NW15        N/A  WCI   4
SPRINGVIEW       N/A     18   1  46 NW13G26     N/A  WCI   5
BREWSTER         N/A     25   2  35 SW9         N/A  WCI  16
ROSE             N/A     26   9  48 SW20        N/A  WCI  12
NEWPORT          N/A     27   7  43 W21         N/A  WCI  13
SARGENT          N/A     25   1  35 N3G15       N/A
COMSTOCK         N/A     32   0  25 NW14        N/A  WCI  22
CHAMBERS         N/A     24  -1  32 W15G23      N/A  WCI  11
EWING            N/A     22   1  39 NW13G24     N/A  WCI  10
$$

...OBSERVATIONS IN SOUTHWEST NEBRASKA AND FAR NORTHEAST COLORADO...

CITY           SKY/WX    TMP DP  RH WIND       PRES   REMARKS
WRAY           FAIR      27   6  42 NW12      30.23S WCI  16
OGALLALA       SUNNY     26   6  43 NW21G28   30.22F WCI  12
LEXINGTON      MOSUNNY   27   9  47 NW14      30.27F WCI  16
PAXTON           N/A     26  12  55 W12         N/A  WCI  16
BRADY            N/A     27  10  48 W3G12       N/A
GOTHENBURG       N/A     24   4  43 NW8         N/A  WCI  15
CALLAWAY         N/A     23   6  49 NW12        N/A  WCI  12
$$

...NORTH PLATTE AREA...

CITY           SKY/WX    TMP DP  RH WIND       PRES   REMARKS
DOWNTOWN         N/A     25   4  40 N7G16       N/A  WCI  17
$$

...SOME WEATHER OBSERVATIONS FROM AROUND THE REGION...

CITY           SKY/WX    TMP DP  RH WIND       PRES   REMARKS
SIOUX FALLS    PTSUNNY   11  -2  56 NW20      30.29R WCI  -7
HAYS           MOSUNNY   28   5  37 N14G21    30.31F WCI  17
LIBERAL        CLOUDY    21  14  73 N17       30.27S WCI   7
$$



USA.gov is the U.S. government's official web portal to all federal, state and local government web resources and services.